Waarnemingen

Advertentie
Mijn weer
Aerodrome Albert-Bray, Frankrijk (7059): temperatuur & dauwpunt: 19.03.2019 23:00:00 - 25.03.2019 23:00:00 (CET)Aerodrome Albert-Bray, Frankrijk (7059): windsnelheid & windstoten: 19.03.2019 23:00:00 - 25.03.2019 23:00:00 (CET)Aerodrome Albert-Bray, Frankrijk (7059): windrichting: 19.03.2019 23:00:00 - 25.03.2019 23:00:00 (CET)Aerodrome Albert-Bray, Frankrijk (7059): luchtdruk: 19.03.2019 23:00:00 - 25.03.2019 23:00:00 (CET)Aerodrome Albert-Bray, Frankrijk (7059): zicht: 19.03.2019 23:00:00 - 25.03.2019 23:00:00 (CET)Aerodrome Albert-Bray, Frankrijk (7059): neerslag: 19.03.2019 23:00:00 - 25.03.2019 23:00:00 (CET)
Datum & Tijd tt [°C] td [°C] ff [km/u] ff [kn] fx [km/u] fx [kn] dd ppp [hPa] vv [km] rr [mm]
25.03.2019 23:00:00 6,7 2,6 21 11 39 21 N 1033,4 10 0,0
25.03.2019 22:00:00 6,8 2,3 21 11 37 20 N 1033,1 10 0,0
25.03.2019 21:00:00 6,6 1,9 18 10 35 19 N 1032,7 10 0,0
25.03.2019 20:00:00 6,9 0,8 28 15 50 27 N 1031,9 10 0,0
25.03.2019 19:00:00 7,7 1,7 28 15 50 27 N 1031,5 10 0,0
25.03.2019 18:00:00 8,1 2,3 28 15 50 27 N 1031,1 10 0,0
25.03.2019 17:00:00 9,4 2,0 31 17 54 29 N 1030,4 10 0,0
25.03.2019 16:00:00 9,2 1,6 34 18 57 31 N 1030,3 60 0,0
25.03.2019 15:00:00 9,1 2,6 34 18 51 28 N 1030,4 10 0,0
25.03.2019 14:00:00 9,2 1,4 34 18 50 27 N 1030,2 10 0,0
25.03.2019 13:00:00 9,1 0,5 31 17 51 28 N 1030,2 10 0,0
25.03.2019 12:00:00 9,5 2,1 31 17 46 25 N 1029,9 10 0,0
25.03.2019 11:00:00 7,9 2,6 24 13 48 26 N 1029,8 10 0,0
25.03.2019 10:00:00 7,8 3,1 24 13 40 22 NNW 1029,2 19 0,0
25.03.2019 09:00:00 7,2 3,4 22 12 31 17 NW 1028,2 10 0,0
25.03.2019 08:00:00 5,1 2,9 16 9 27 14 NW 1027,8 10 0,0
25.03.2019 07:00:00 3,9 2,3 18 10 24 13 NW 1027,2 10 0,0
25.03.2019 06:00:00 3,0 2,3 13 7 20 11 WNW 1026,9 10 0,0
25.03.2019 05:00:00 1,7 1,0 11 6 17 9 W 1026,9 5 0,0
25.03.2019 04:00:00 1,9 1,2 13 7 18 10 W 1027,0 7 0,0
25.03.2019 03:00:00 2,4 1,4 13 7 16 9 W 1027,2 10 0,0
25.03.2019 02:00:00 2,9 1,6 13 7 17 9 W 1027,7 10 0,0
25.03.2019 01:00:00 3,3 1,8 13 7 15 8 WNW 1028,0 10 0,0
25.03.2019 00:00:00 3,2 1,6 11 6 20 11 W 1028,3 10 0,0
24.03.2019 23:00:00 4,7 1,5 13 7 22 12 WNW 1028,5 10 0,0
24.03.2019 22:00:00 5,4 1,5 15 8 21 11 WNW 1028,7 10 0,0
24.03.2019 21:00:00 6,5 0,6 11 6 13 7 NNW 1028,6 10 0,0
24.03.2019 20:00:00 7,0 0,0 11 6 15 8 NNW 1028,7 60 0,0
24.03.2019 19:00:00 8,0 0,9 11 6 19 10 NNW 1028,2 10 0,0
24.03.2019 18:00:00 10,3 1,1 15 8 25 13 NNW 1027,8 10 0,0
24.03.2019 17:00:00 11,0 1,0 13 7 27 15 N 1027,9 10 0,0
24.03.2019 16:00:00 11,1 1,1 18 10 34 19 N 1028,3 10 0,0
24.03.2019 15:00:00 11,3 2,8 21 12 39 21 N 1028,7 45 0,0
24.03.2019 14:00:00 11,0 4,9 22 12 33 18 N 1028,9 10 0,0
24.03.2019 13:00:00 11,1 4,8 15 8 24 13 N 1028,9 10 0,0
24.03.2019 12:00:00 10,8 5,3 11 6 21 11 NNO 1029,1 10 0,0
24.03.2019 11:00:00 8,6 6,0 16 8 28 15 N 1029,5 11 0,0
24.03.2019 10:00:00 7,9 5,5 15 8 22 12 N 1029,4 10 0,0
24.03.2019 09:00:00 7,0 5,1 9 5 23 12 N 1029,0 10 0,0
24.03.2019 08:00:00 6,0 4,8 16 9 31 17 NNO 1029,0 7 0,0
24.03.2019 07:00:00 6,0 4,5 18 10 31 17 N 1028,9 7 0,0
24.03.2019 06:00:00 6,4 4,1 21 11 31 17 NNO 1029,0 13 0,0
24.03.2019 05:00:00 6,7 4,2 24 13 34 18 NNO 1028,9 13 0,0
24.03.2019 04:00:00 6,9 4,4 18 10 31 17 NNO 1029,2 10 0,0
24.03.2019 03:00:00 7,1 4,7 20 11 29 16 NNO 1029,4 14 0,0
24.03.2019 02:00:00 7,5 5,0 18 10 29 16 NNO 1029,7 10 0,0
24.03.2019 01:00:00 8,0 5,3 19 11 27 15 NNO 1029,9 15 0,0
24.03.2019 00:00:00 8,2 6,0 15 8 25 14 NNO 1030,1 10 0,0
23.03.2019 23:00:00 8,5 6,3 18 10 24 13 NNO 1030,3 10 0,0
23.03.2019 22:00:00 8,7 7,1 16 9 29 16 NNO 1030,8 9 0,0
23.03.2019 21:00:00 9,0 7,8 20 11 27 14 NNO 1030,7 4,9 0,0
23.03.2019 20:00:00 9,5 8,3 15 8 24 13 NNO 1030,7 5 0,0
23.03.2019 19:00:00 10,1 8,4 16 9 23 12 NNO 1030,4 5 0,0
23.03.2019 18:00:00 10,7 7,6 12 6 19 10 NO 1030,5 5 0,0
23.03.2019 17:00:00 10,8 7,5 11 6 18 10 NO 1030,4 6 0,0
23.03.2019 16:00:00 10,8 7,3 13 7 20 11 NNO 1030,6 6 0,0
23.03.2019 15:00:00 11,0 7,3 13 7 20 11 NO 1030,9 6 0,0
23.03.2019 14:00:00 10,7 7,4 11 6 21 11 NO 1031,2 6 0,0
23.03.2019 13:00:00 10,2 7,4 11 6 17 9 NNO 1031,3 6 0,0
23.03.2019 12:00:00 9,5 7,3 8 4 14 8 N 1031,3 5 0,0
23.03.2019 11:00:00 8,8 7,6 9 5 15 8 NW 1031,3 5 0,0
23.03.2019 10:00:00 7,8 7,4 8 4 11 6 WNW 1031,3 4,3 0,0
23.03.2019 09:00:00 7,0 6,7 5 3 8 5 W 1031,0 3,0 0,0
23.03.2019 08:00:00 6,6 6,3 4 2 7 4 - 1030,9 2,2 0,0
23.03.2019 07:00:00 6,3 6,0 4 2 6 3 ZW 1030,5 1,8 0,0
23.03.2019 06:00:00 6,3 6,0 6 3 8 4 ZW 1029,9 0,9 0,0
23.03.2019 05:00:00 6,3 6,0 4 2 4 2 - 1029,7 2,5 0,0
23.03.2019 04:00:00 6,3 6,0 0 0 10 5 N 1029,8 2,7 0,0
23.03.2019 03:00:00 6,1 5,8 8 4 24 13 NNW 1029,9 2,5 0,0
23.03.2019 02:00:00 5,4 5,1 15 8 22 12 N 1030,1 1,4 0,0
23.03.2019 01:00:00 5,5 5,2 14 8 26 14 NNW 1029,7 0,2 0,0
23.03.2019 00:00:00 5,5 5,1 16 9 22 12 NNW 1029,3 0,4 0,0
22.03.2019 23:00:00 6,5 5,9 16 9 21 12 NW 1029,2 2,4 0,0
22.03.2019 22:00:00 7,1 6,0 10 5 18 10 NW 1028,9 1,9 0,0
22.03.2019 21:00:00 8,2 7,0 13 7 19 10 NW 1028,9 2,4 0,0
22.03.2019 20:00:00 10,4 8,5 8 5 13 7 NNW 1028,4 4,8 0,0
22.03.2019 19:00:00 12,8 6,4 5 3 6 3 N 1028,0 9 0,0
22.03.2019 18:00:00 15,1 5,9 4 2 14 8 W 1027,6 11 0,0
22.03.2019 17:00:00 15,3 6,0 8 4 20 11 W 1027,5 10 0,0
22.03.2019 16:00:00 15,4 4,4 8 4 14 8 Z 1027,8 10 0,0
22.03.2019 15:00:00 14,9 4,6 5 3 14 8 WZW 1028,2 14 0,0
22.03.2019 14:00:00 13,8 4,1 8 4 13 7 ZW 1028,7 10 0,0
22.03.2019 13:00:00 12,0 6,3 5 3 14 8 WZW 1029,3 10 0,0
22.03.2019 12:00:00 10,4 7,3 5 3 14 7 ZW 1029,8 8 0,0
22.03.2019 11:00:00 8,3 7,7 8 4 14 8 W 1030,4 5 0,0
22.03.2019 10:00:00 7,8 7,5 5 3 11 6 W 1030,6 5 0,0
22.03.2019 09:00:00 5,0 4,9 5 3 10 5 N 1030,5 0,6 0,0
22.03.2019 08:00:00 2,7 2,4 8 4 9 5 N 1030,7 0,2 0,0
22.03.2019 07:00:00 2,5 2,2 8 4 11 6 NW 1030,5 0,2 0,0
22.03.2019 06:00:00 3,0 2,7 4 2 8 5 N 1030,2 0,1 0,0
22.03.2019 05:00:00 4,5 4,2 8 4 11 6 NO 1030,2 0,2 0,0
22.03.2019 04:00:00 5,7 5,4 9 5 22 12 NO 1030,5 0,2 0,0
22.03.2019 03:00:00 6,5 6,1 16 9 23 12 NO 1030,7 0,4 0,0
22.03.2019 02:00:00 6,4 5,8 11 6 20 11 NNO 1031,3 2,9 0,0
22.03.2019 01:00:00 7,0 6,4 15 8 23 12 NNO 1031,7 2,2 0,0
22.03.2019 00:00:00 7,0 6,3 13 7 22 12 N 1032,3 4,5 0,0
21.03.2019 23:00:00 7,1 6,4 14 7 20 11 N 1032,5 5 0,0
21.03.2019 22:00:00 7,3 6,6 13 7 16 9 N 1032,6 7 0,0
21.03.2019 21:00:00 7,7 6,6 12 7 21 12 N 1032,8 10 0,0
21.03.2019 20:00:00 9,1 7,4 16 9 23 12 N 1032,7 10 0,0
21.03.2019 19:00:00 10,5 8,1 13 7 16 9 N 1032,6 10 0,0
21.03.2019 18:00:00 12,0 8,3 10 6 18 10 N 1032,3 18 0,0
21.03.2019 17:00:00 13,0 8,3 11 6 29 16 NO 1032,4 10 0,0
21.03.2019 16:00:00 13,9 7,0 8 4 16 9 NNO 1032,7 10 0,0
21.03.2019 15:00:00 13,9 7,4 5 3 17 9 NNO 1033,3 10 0,0
21.03.2019 14:00:00 14,2 7,5 5 3 16 9 - 1033,9 10 0,0
21.03.2019 13:00:00 12,5 6,5 8 4 19 11 NW 1034,7 10 0,0
21.03.2019 12:00:00 12,5 7,8 4 2 13 7 - 1035,0 10 0,0
21.03.2019 11:00:00 11,4 7,7 5 3 13 7 N 1035,2 10 0,0
21.03.2019 10:00:00 9,8 7,6 8 4 11 6 NNO 1035,4 10 0,0
21.03.2019 09:00:00 7,6 7,3 5 3 10 5 N 1035,5 7 0,0
21.03.2019 08:00:00 5,1 5,0 8 4 11 6 N 1035,5 3,8 0,0
21.03.2019 07:00:00 2,3 1,9 8 4 17 9 N 1035,3 0,8 0,0
21.03.2019 06:00:00 2,7 2,3 15 8 16 9 NW 1035,0 0,1 0,0
21.03.2019 05:00:00 4,2 3,8 8 5 11 6 NW 1034,6 0,3 0,0
21.03.2019 04:00:00 6,2 5,8 2 1 5 3 ONO 1034,3 3,7 0,0
21.03.2019 03:00:00 6,2 5,8 4 2 9 5 N 1034,7 3,5 0,0
21.03.2019 02:00:00 6,4 5,7 8 4 9 5 N 1035,2 8 0,0
21.03.2019 01:00:00 6,8 5,6 8 4 9 5 N 1035,4 8 0,0
21.03.2019 00:00:00 7,5 6,4 9 5 11 6 N 1035,1 9 0,0
20.03.2019 23:00:00 8,1 6,1 8 4 9 5 N 1035,3 10 0,0
20.03.2019 22:00:00 8,1 6,1 4 2 6 4 NNO 1035,2 10 0,0
20.03.2019 21:00:00 10,1 6,2 4 2 6 3 NW 1034,8 28 0,0
20.03.2019 20:00:00 10,8 6,3 3 2 4 2 ZZW 1034,6 27 0,0
20.03.2019 19:00:00 11,3 6,2 2 1 8 4 ZZW 1034,4 10 0,0
20.03.2019 18:00:00 13,2 6,3 4 2 11 6 - 1033,9 10 0,0
20.03.2019 17:00:00 13,3 6,2 5 3 16 8 ZZW 1033,7 17 0,0
20.03.2019 16:00:00 13,3 7,1 5 3 12 6 Z 1033,9 10 0,0
20.03.2019 15:00:00 12,0 6,5 7 4 14 8 NW 1034,7 29 0,0
20.03.2019 14:00:00 11,8 6,5 4 2 18 10 - 1035,0 10 0,0
20.03.2019 13:00:00 11,6 6,3 11 6 25 14 WZW 1034,9 10 0,0
20.03.2019 12:00:00 11,2 6,5 15 8 26 14 ZZW 1034,8 38 0,0
20.03.2019 11:00:00 10,4 6,7 11 6 18 10 Z 1034,8 10 0,0
20.03.2019 10:00:00 7,5 6,0 6 3 13 7 Z 1035,0 12 0,0
20.03.2019 09:00:00 5,5 5,2 5 3 9 5 Z 1034,7 7 0,0
20.03.2019 08:00:00 3,0 2,7 5 3 9 5 ZZO 1034,3 2,7 0,0
20.03.2019 07:00:00 2,3 2,0 5 3 6 4 ZZO 1033,7 0,3 0,0
20.03.2019 06:00:00 2,2 1,9 5 3 13 7 Z 1033,4 0,4 0,0
20.03.2019 05:00:00 1,2 0,5 12 7 13 7 Z 1032,9 0,1 0,0
20.03.2019 04:00:00 3,7 3,1 2 1 5 3 W 1033,3 5 0,0
20.03.2019 03:00:00 4,6 3,9 5 3 6 3 ZZW 1033,1 7 0,0
20.03.2019 02:00:00 4,1 3,2 5 3 8 4 Z 1033,1 6 0,0
20.03.2019 01:00:00 5,1 3,9 5 3 10 5 ZZW 1033,0 10 0,0
20.03.2019 00:00:00 6,2 4,0 8 4 11 6 NW 1032,4 10 0,0
19.03.2019 23:00:00 6,4 4,4 9 5 13 7 NW 1032,2 10 0,0

tt = temperatuur
td = dauwpunt
ff = windsnelheid
fx = windstoten
dd = windrichting
ppp = luchtdruk
vv = zicht
rr = neerslag

Weerstations in de omgeving